Погода в Дальнереченске

Погода в Дальнереченске : погода сейчас, прогноз погоды и архив. Всё, что Вы хотите узнать о погоде в Дальнереченске!

Хотите узнать прогноз погоды в Дальнереченске? Тогда Вам сюда: Погода в Дальнереченске

Поиск расширенной информации на нашем сайте:

Другие новости

Новости СМИ2

Главная страница сайта

Новости сайта

02.10.2013

Напоминаем, что на нашем новом сайте вы можете получить высокодетализированные прогнозы погоды по пунктам России, СНГ и мира (включающие важные для авиации метеовеличины, такие как направление и скорость ветра, видимость, явления погоды, количество и форма облачности, нижняя и верхняя граница облачности), а также ознакомиться с разнообразными материалами по авиационной метеорологии и подборкой полезных ссылок на эту тему.

Сайт Метеоцентр.Азия посвящён разработке технологий оптимизации авиаметеорологического обслуживания, включая проектирование и перспективное создание нескольких автоматизированных авиаметеорологических систем:
- система выпуска высокодетальных прогностических карт явлений погоды для нижнего воздушного пространства по России и ближнему зарубежью;
- система верификации прогнозов TAF (выпускаемых синоптиками официальных АМСГ РФ и ближнего зарубежья) и AUTOTAF (выпускаемых сайтом Метеоцентр.Азия) - выявление ошибок, онлайн-сопоставление с фактической погодой METAR, автоматическое внесение коррективов в прогнозы при резком отклонении фактической погоды от прогноза, подсчёт оправдываемости прогнозов по элементам и в целом;
- система обработки, анализа и отображения авиаметеорологической информации для применения провайдерами метеорологической информации.

Рекомендуем: http://vibromash.com/ трос сантехнический для прочистки канализации купить.

Погода в Дальнереченске - сегодня

Время (UTC), дата Ветер
(°,м/с) 
Видим.   Явления Облачность Т
(°С)
Тd
(°С)
f(%) Тe
(°С)
Pmin
(гПа)
dP
(гПа)
Po
(мм)
O2
(г/м3)
Тmin Tmax R s Состояние
почвы
15 24.04.17 200 (Ю) 3{11}  10 км  слаб. дождь  10/10 600 м 
[Sc]
+7.6 +5.1 84 +7  1012.8  -1.2  750  293           
18 24.04.17 200 (Ю) 10 км  слаб. дождь  10/10 600 м 
[Sc]
+6.8 +5.6 92 +6  1011.8  -1  750  294           
21 24.04.17 220 (ЮЗ) 10 км  слаб. дождь  10/6 600 м средняя 
[Sc|Ac As]
+6.6 +5.9 95 +6  1011.2  -0.5  749  294  +6.6      влажная 
00 25.04.17 210 (ЮЗ) 20000 м  в посл. час дождь  10/6 300 м средняя 
[Frnb|Ac As]
+7.6 +6.5 93 +7  1012.2  750  293           
03 25.04.17 240 (ЮЗ) 20000 м    3/3 600 м 
[Cu hum]
+12.1 +2.2 51 +12  1011.2  -0.8  749  289           
06 25.04.17 290 (З) 5{14}  20000 м  осадки на расстоянии  8/3 600 м кучево-дожд., верхняя 
[Cb cap|Ci]
+10.4 +2 56 +9  1010.8  -0.5  749  290           
09 25.04.17 230 (ЮЗ) 2{13}  20000 м  в посл. час ливневой дождь  9/3 600 м кучево-дожд., верхняя 
[Cb cap|Ci]
+9.2 +1.8 60 +9  1010.9  0.1  749  292    +14  0.6     
12 25.04.17 230 (ЮЗ) 10 км  {ливн. осадки}  3/0 средняя 
[Ac trans]
+5.8 +1.6 74 +5  1011.8  0.7  750  295           
15 25.04.17 240 (ЮЗ) 10 км    ясно 
+4.3 +1.4 81 +4  1011.4  -0.5  749  297           
18 25.04.17 230 (ЮЗ) 10 км    ясно 
+3.8 +1.3 84 +3  1010.6  -0.8  749  297           
21 25.04.17 210 (ЮЗ) 20000 м    3/3 600 м средняя 
[Sc|Ac trans]
+4.3 +2.4 87 +3  1009.3  -1.2  748  296  +2.7        влажная 
00 26.04.17 220 (ЮЗ) 10 км  слаб. дождь  10/10 600 м 
[Sc]
+5.7 +3.7 87 +4  1008.3  -0.9  747  294           
03 26.04.17 230 (ЮЗ) 10 км  {дождь}  10/8 600 м средняя 
[Sc|Ac As]
+7.2 +3.6 78 +5  1007.5  -0.8  746  292    -11       
06 26.04.17 220 (ЮЗ) 4{10}  20000 м  {дождь}  10/8 600 м верхняя 
[Cu Sc|Cs]
+8.2 +4.4 77 +7  1006.1  -1.3  745  291           
09 26.04.17 250 (З) 20000 м  {ливн. осадки}  8/5 600 м кучево-дожд., верхняя 
[Cb cap|Ci ing]
+7.2 +1.9 69 +6  1005.5  -0.7  745  292    +8.7     
12 26.04.17 250 (З) 2{10}  10 км  в посл. час дождь  8/3 600 м верхняя 
[Sc|Ci fib]
+3.4 +2.5 94 +3  1006.1  0.5  745  296           
15 26.04.17 260 (З) 10 км  слаб. дождь  10/10 600 м 
[Sc]
+4.2 +3.5 95 +3  1005.1  -1  745  295           
18 26.04.17 280 (З) 10 км  {дождь}  10/10 600 м 
[Sc]
+4 +3.4 96 +4  1003.5  -1.6  743  295           
21 26.04.17 280 (З) 20000 м    10/10 600 м 
[Sc]
+3.8 +3.1 95 +3  1002.9  -0.6  743  295  +2.7      мокрая 
00 27.04.17 340 (С) 20000 м    10/10 600 м 
[Sc]
+6.1 +3.1 81 +7  1002.5  -0.3  743  292           
03 27.04.17 300 (СЗ) 20000 м  в посл. час ливневой дождь  8/4 600 м кучево-дожд., средняя 
[Cb cap|Ac As]
+8.1 +1.8 64 +9  1002  -0.4  742  290           
06 27.04.17 040 (СВ) 20000 м  {ливн. осадки}  8/3 600 м кучево-дожд., средняя 
[Cb cap|Ac trans]
+8.4 +3.7 72 +8  1000.9  -1.1  742  289           
09 27.04.17 140 (ЮВ) 20000 м    3/1 600 м средняя 
[Sc diur, vesp|Ac trans]
+10.7 +0.3 49 +12  1000.2  -0.6  741  287    +11.2  0.6     
12 27.04.17 250 (З) 10 км    ясно 
+6.7 +0.7 66 +8  1001.2  0.8  742  292           
15 27.04.17 240 (ЮЗ) 10 км    10/0 средняя 
[Ac As]
+6.1 +2.9 80 +6  1000.6  -0.6  741  292           
Время (UTC), дата Ветер
(°,м/с) 
Видим.   Явления Облачность Т
(°С)
Тd
(°С)
f(%) Тe
(°С)
Pmin
(гПа)
dP
(гПа)
Po
(мм)
O2
(г/м3)
Тmin Tmax R s Состояние
почвы

Для получения пояснительной информации подведите курсор к названию столбца.

ПОГОДА в Дальнереченске - архив

Всё, что Вы хотите узнать о погоде в Дальнереченске - удобно и подробно!

Выберите нужную дату (начиная с 1 января 2015* года) и нажмите кнопку "Найти".
Будут отображены архивные сводки погоды по пункту Дальнереченск, начиная с указанной даты.


Отображать данные в формате CSV (для использования в таблицах Excel)


Внимание! Наш архив погоды предназначен исключительно для личного некоммерческого использования в познавательных целях. Если Вам необходимы официальные справки о состоянии погоды (для производственных, юридических, коммерческих и т.п. целей), обращайтесь в органы Росгидромета.

*Примечание: данная дата относится к архиву по метеостанциям СССР (Россия, СНГ, Балтия).
Архив по метеостанциям Зарубежной Европы и Азии (кроме Китая) хранится 10 дней, по другим регионам земного шара (Китай, Африка, Америка, Австралия, Океания) - 1 день.

Дальнереченск - район местоположения метеостанции


Название, широта, долгота, высота метеостанции:
Дальнереченск 45.9°ш. 133.7°д. 101 м над ур. моря [Российская Федерация]

Дополнительная информация

В oтличие oт бoльшинства пoгoдных сайтoв мы публикуем пoдрoбную метеoинфoрмацию в детальнoм прoфессиoнальнoм фoрмате.

Характеристики температуры и влажнoсти вoздуха измеряются на высoте 2 м в тени вдали oт зданий и деревьев.
Скoрoсть ветра измеряется на высoте 10 м (на урoвне рoста челoвека скoрoсть ветра ниже в 1.5-2 раза). Если метеoстанция нахoдится в гoрoде или в лесу, тo скoрoсть ветра занижена на 2-4 м/с пo сравнению с oткрытым местoм. Скoрoсть ветра над акватoриями крупных рек и oзёр, а также на вершинах хoлмoв на 2-5 м/с выше, чем в oбычных услoвиях.
Атмoсфернoе давление в разных тoчках местнoсти мoжет значительнo oтличаться oт давления на метеoстанции, в зависимoсти oт услoвий рельефа (при пoдъёме на 10 м давление пoнижается примернo на 1 мм рт.ст.).